Regional Weather Roundup
Issued by NWS

Home | Current Version | Previous Version | Text Only | Print | Product List | Glossary Off
Versions: 1 2 3 4 5 6 7 8 9 10 11 12 13 14 15 16 17 18 19 20 21 22 23 24 25 26 27 28 29 30 31 32 33 34 35 36 37 38 39 40 41 42 43 44 45 46 47 48 49 50

000
ASUS45 KPSR 282100
RWRAZ

ARIZONA HOURLY REGIONAL WEATHER ROUNDUP
NATIONAL WEATHER SERVICE PHOENIX AZ
200 PM MST THU MAY 28 2015

NOTE: FAIR INDICATES FEW OR NO CLOUDS BELOW 12,000 FEET WITH NO
SIGNIFICANT WEATHER AND/OR OBSTRUCTIONS TO VISIBILITY.

AZZ001>003-036-282200-
NORTHWEST ARIZONA

CITY           SKY/WX    TMP DP  RH WIND       PRES   REMARKS
KINGMAN        SUNNY     89  24   9 SW14      30.01F
$$

AZZ004>008-015-016-018-282200-
NORTH CENTRAL ARIZONA

CITY           SKY/WX    TMP DP  RH WIND       PRES   REMARKS
GRAND CANYON   SUNNY     74  22  14 SW10G23   30.19F
WILLIAMS       SUNNY     73  19  13 W9G20     30.26F
PRESCOTT       SUNNY     81  21  11 W13       30.10F
FLAGSTAFF      NOT AVBL
PAYSON         SUNNY     79  19  11 W12       30.13F
PAGE           MOSUNNY   84  34  16 CALM      30.01F
$$

AZZ009>014-017-282200-
NORTHEAST ARIZONA

CITY           SKY/WX    TMP DP  RH WIND       PRES   REMARKS
WINSLOW        NOT AVBL
SAINT JOHNS    SUNNY     82  12   7 W22       30.09F
WINDOW ROCK    MOSUNNY   77  25  14 NW8       30.15F
$$

AZZ023-282200-
GREATER PHOENIX AREA

CITY           SKY/WX    TMP DP  RH WIND       PRES   REMARKS
PHOENIX        MOSUNNY   97  31   9 S8        29.86F
GLENDALE       MOSUNNY   93  32  11 SE5       29.89F
LUKE AFB       SUNNY     94  33  11 W8        29.86F
DEER VALLEY    SUNNY     92  28  10 SW8       29.89F
SCOTTSDALE     SUNNY     94  29  10 VRB6      29.90F
MESA-FALCON    SUNNY     93  28  10 SW14      29.89F
CHANDLER       SUNNY     95  30  10 W9        29.88F
$$

AZZ027-028-282200-
SOUTHWEST MARICOPA COUNTY AND PINAL COUNTY

CITY           SKY/WX    TMP DP  RH WIND       PRES   REMARKS
CASA GRANDE    SUNNY     93  34  12 W7        29.88F
GILA BEND      SUNNY     94  31  10 SW9       29.86F
$$

AZZ503-504-507>509-282200-
SOUTHEAST ARIZONA

CITY           SKY/WX    TMP DP  RH WIND       PRES   REMARKS
TUCSON         SUNNY     95  21   7 S7        29.95F
DAVIS-MONTHAN  SUNNY     92  26   9 VRB5      29.93F
RYAN FIELD       N/A     95  32  11 SW13      29.94F
NOGALES        SUNNY     89  17   7 W9        30.02F
SIERRA VISTA   SUNNY     86  21   9 SE7       30.07F
SAFFORD        MOSUNNY   93  24   8 W9        29.93F
$$

AZZ020-021-025-026-031-282200-
SOUTHWEST ARIZONA

CITY           SKY/WX    TMP DP  RH WIND       PRES   REMARKS
YUMA           NOT AVBL
$$

CAZ031-033-041-043-047-048-061-282200-
SOUTHERN CALIFORNIA

CITY           SKY/WX    TMP DP  RH WIND       PRES   REMARKS
DOWNTOWN L.A.  SUNNY     74  56  53 VRB3      29.95F
L.A. AIRPORT   MOSUNNY   66  56  70 W13       29.98F
SAN DIEGO      MOSUNNY   69  55  60 NW10      29.99F
BURBANK        SUNNY     77  55  46 S7        29.95F
ONTARIO        MOSUNNY   80  52  37 W9        29.94F
RIVERSIDE      SUNNY     81  53  37 VRB5      29.94F
PALM SPRINGS   SUNNY     97  46  17 E9        29.86F
EL CENTRO NAS  MOSUNNY   95  44  17 E7        29.84F
IMPERIAL       SUNNY     95  41  15 E7        29.82F
BLYTHE         SUNNY     97  22   7 S8        29.85F
$$

NVZ020-UTZ003-282200-
SOUTHERN NEVADA-UTAH

CITY           SKY/WX    TMP DP  RH WIND       PRES   REMARKS
LAS VEGAS      NOT AVBL
SALT LAKE CITY MOSUNNY   69  46  43 NW15      30.08F
$$

NMZ009-TXZ055-282200-
NEW MEXICO-WEST TEXAS

CITY           SKY/WX    TMP DP  RH WIND       PRES   REMARKS
ALBUQUERQUE    MOSUNNY   80  25  13 SE6       30.05F
EL PASO        MOSUNNY   93  14   5 SW13G30   29.96F
$$


........................KEY........................
SKY/WX - SKY CONDITION/WEATHER
TMP    - TEMPERATURE IN FAHRENHEIT
DP     - DEW POINT IN FAHRENHEIT
RH     - RELATIVE HUMIDITY IN PERCENT
WIND   - DIRECTION AND SPEED IN MILES PER HOUR (MPH)
VRB    - VARIABLE WIND DIRECTION
PRES   - MEAN SEA LEVEL PRESSURE IN INCHES OF MERCURY
         F - FALLING PRESSURE   R - RISING PRESSURE
         S - STEADY PRESSURE
VSB    - VISIBILITY IN MILES
HX     - HEAT INDEX IN FAHRENHEIT
WCI    - WIND CHILL INDEX IN FAHRENHEIT
TC     - TEMPERATURE IN CELSIUS WHICH IS ALSO KNOWN AS
         TEMPERATURE IN CENTIGRADE
AFB    - AIR FORCE BASE
         LUKE AFB IS LUKE AIR FORCE BASE
         DAVIS-MONTHAN IS DAVIS-MONTHAN AIR FORCE BASE
NAS    - NAVAL AIR STATION
         EL CENTRO NAS IS EL CENTRO NAVAL AIR STATION
N/A    - NOT AVAILABLE



USA.gov is the U.S. government's official web portal to all federal, state and local government web resources and services.